Temp
12 12 13 14 14 15 15 16 16 15 14 14 15 15 14 15 14 12 13 14 14 13 12 12 12 12 11 12 12 12 11 11 11 11 11 11 11 11 11 11 12 12 12 11
12 12 14 14 14 14 15 15 16 15 14 14 16 16 15 14 14 12 13 13 13 13 13 13 12 12 12 12 12 12 11 11 11 11 11 11 11 11 12 12 12 12 11 11
13 13 13 14 14 14 14 15 16 16 14 15 15 16 16 15 14 12 13 13 13 13 14 13 13 12 12 12 12 12 11 11 11 11 11 12 12 12 12 12 12 12 11 11
13 13 13 13 14 14 15 15 15 15 15 17 15 18 16 15 14 15 14 15 14 13 13 14 13 13 13 12 12 12 12 11 11 11 11 12 12 12 12 12 12 12 11 11
13 13 13 13 14 14 15 15 14 15 15 16 16 16 18 16 15 14 16 16 15 15 14 14 14 13 12 12 12 12 11 11 11 12 12 12 12 12 12 12 12 11 11 11
12 13 13 13 13 14 14 14 14 14 15 17 16 17 18 18 17 16 15 16 16 16 16 15 14 13 13 12 12 12 12 11 11 12 12 12 13 12 12 12 12 12 11 11
11 12 12 12 13 13 13 13 15 16 17 17 17 17 17 17 16 16 16 15 15 16 16 16 14 13 13 13 12 12 12 12 12 12 12 12 13 13 13 12 12 12 11 11
12 12 12 11 13 14 13 14 16 16 18 18 17 16 16 16 16 16 16 16 16 14 14 15 15 13 13 13 13 12 12 12 12 12 12 13 13 13 13 12 12 12 12 12
13 13 13 12 12 13 13 13 14 15 16 17 18 16 16 15 16 16 16 16 15 15 16 16 15 14 13 13 13 13 12 12 12 12 12 13 13 13 13 13 12 12 12 12
11 13 12 11 12 12 13 13 14 14 16 16 17 16 17 17 17 17 15 16 16 17 16 16 16 14 13 13 13 13 12 12 12 12 12 13 13 13 13 13 12 12 12 12
10 11 12 11 11 12 12 13 13 15 15 17 17 17 17 16 16 16 15 15 16 16 16 16 16 15 14 13 13 13 12 12 12 12 12 13 13 13 13 13 13 13 12 12
8 11 12 11 12 12 13 13 13 14 15 15 16 17 16 16 15 15 16 16 16 16 16 16 16 16 15 14 13 13 13 13 12 12 12 13 13 14 13 13 13 13 13 13
7 10 11 12 11 10 11 12 13 13 14 15 16 16 16 16 15 15 15 15 16 16 16 16 16 16 15 15 14 13 14 13 13 12 12 13 13 14 14 14 13 13 13 13
7 8 10 12 12 11 11 11 12 13 14 14 14 15 15 15 14 14 14 15 16 15 16 16 16 16 15 15 15 14 14 14 13 13 12 12 13 13 14 14 14 14 13 13
5 8 7 8 8 8 11 11 11 11 12 14 14 14 14 14 14 13 14 15 15 15 16 16 16 16 16 15 14 14 14 14 13 13 13 13 13 13 14 14 14 14 14 14
4 6 6 8 8 8 9 9 10 11 12 12 13 13 13 12 12 11 13 15 15 15 16 16 16 16 16 15 15 14 14 14 14 14 14 13 13 13 14 14 14 14 14 14
4 6 7 9 8 8 9 9 10 10 11 11 11 12 11 9 11 12 13 14 14 15 15 16 16 17 16 16 15 15 15 14 13 14 14 14 13 13 14 14 14 14 14 14
3 4 6 8 7 9 9 7 7 9 8 8 8 8 7 11 12 12 13 13 14 15 15 16 16 17 17 16 16 15 15 15 14 14 14 14 14 14 13 13 14 14 14 14
2 3 6 7 8 9 7 5 6 7 5 7 7 9 10 11 11 11 12 13 14 14 15 16 17 17 17 17 16 16 16 15 15 15 15 15 14 14 14 13 13 14 14 14
2 1 3 6 8 10 6 6 6 7 6 6 6 8 9 10 10 11 11 12 14 14 15 16 17 17 17 17 17 17 16 16 16 16 15 14 14 14 14 13 13 13 14 14
2 2 3 5 6 7 5 5 5 5 5 6 6 7 8 9 9 11 11 12 13 14 15 16 16 17 17 17 17 17 17 17 17 16 15 14 14 14 13 13 13 13 13 13
2 3 4 4 5 6 4 4 5 4 4 5 5 5 7 7 8 9 10 11 13 14 15 15 16 16 17 17 17 17 17 16 15 16 16 15 14 13 14 13 13 12 12 13
1 1 2 3 3 1 2 3 2 2 3 4 4 5 6 7 7 8 9 9 11 13 14 15 16 16 16 16 16 16 16 15 15 15 16 15 14 13 13 13 13 13 12 13
-1 -0 0 0 1 -0 0 2 1 2 3 3 3 4 5 6 7 8 9 8 8 11 13 14 14 15 16 16 16 15 16 15 15 15 15 14 14 13 12 12 13 13 13 13
-1 -2 -1 -0 -0 0 -0 -1 2 2 3 3 2 4 5 5 6 7 8 8 8 9 12 13 13 14 15 16 16 16 15 15 15 15 14 14 13 12 12 12 13 13 13 13
-2 -2 -1 -0 -1 -0 -1 -0 1 1 2 3 3 3 4 5 5 7 8 8 8 9 9 12 13 13 14 15 15 15 15 15 15 14 13 13 13 12 12 12 12 13 13 13
Height
3155 3160 3160 3164 3167 3167 3168 3169 3170 3173 3175 3176 3177 3178 3178 3176 3179 3179 3181 3182 3183 3185 3186 3189 3192 3194 3196 3198 3200 3203 3207 3209 3211 3214 3217 3220 3223 3225 3227 3228 3230 3230 3230 3231
3153 3150 3158 3162 3165 3167 3168 3169 3169 3172 3173 3174 3175 3175 3176 3175 3176 3178 3179 3180 3182 3183 3185 3187 3189 3192 3195 3197 3200 3201 3206 3208 3211 3214 3217 3220 3223 3226 3228 3229 3231 3232 3232 3233
3142 3147 3156 3158 3161 3163 3165 3166 3166 3169 3171 3172 3173 3172 3173 3175 3173 3175 3176 3178 3179 3181 3183 3184 3187 3190 3193 3195 3198 3201 3203 3208 3210 3213 3216 3220 3223 3226 3229 3230 3232 3233 3234 3234
3137 3146 3149 3153 3155 3160 3160 3164 3165 3168 3169 3167 3171 3165 3169 3170 3171 3171 3172 3174 3176 3177 3179 3181 3183 3187 3190 3193 3196 3200 3202 3205 3208 3211 3215 3219 3223 3226 3228 3230 3232 3234 3234 3234
3129 3137 3142 3146 3150 3155 3157 3160 3164 3165 3166 3166 3167 3168 3165 3167 3168 3169 3170 3172 3173 3175 3176 3178 3181 3184 3187 3190 3193 3198 3200 3203 3205 3208 3213 3218 3222 3225 3228 3230 3232 3234 3235 3235
3126 3134 3137 3141 3147 3151 3156 3158 3161 3162 3162 3158 3161 3163 3160 3162 3165 3168 3170 3170 3171 3172 3173 3175 3179 3181 3183 3187 3190 3194 3197 3201 3203 3207 3211 3216 3221 3224 3227 3229 3232 3234 3235 3235
3122 3125 3130 3136 3141 3145 3150 3154 3154 3155 3153 3151 3156 3157 3160 3161 3163 3166 3169 3170 3167 3167 3168 3169 3172 3173 3177 3181 3186 3189 3194 3198 3202 3205 3209 3214 3219 3223 3226 3228 3231 3233 3235 3236
3112 3118 3121 3125 3131 3137 3142 3146 3143 3143 3142 3144 3149 3149 3155 3159 3161 3163 3164 3166 3167 3162 3160 3163 3166 3168 3173 3176 3181 3186 3190 3195 3199 3203 3207 3212 3217 3221 3224 3227 3230 3231 3233 3235
3104 3110 3116 3122 3127 3133 3136 3137 3144 3143 3140 3139 3138 3147 3151 3153 3156 3159 3160 3162 3160 3157 3154 3154 3159 3162 3168 3171 3176 3181 3186 3191 3196 3200 3204 3209 3214 3218 3222 3225 3228 3230 3232 3234
3103 3106 3111 3117 3123 3126 3128 3137 3139 3138 3136 3134 3139 3142 3143 3147 3152 3156 3160 3159 3156 3153 3149 3149 3153 3157 3163 3168 3172 3177 3183 3188 3192 3196 3201 3205 3211 3216 3220 3223 3226 3228 3230 3232
3103 3104 3107 3112 3113 3117 3124 3126 3129 3133 3134 3131 3133 3134 3142 3146 3149 3152 3153 3155 3152 3149 3147 3148 3151 3154 3159 3164 3167 3172 3177 3183 3187 3192 3196 3201 3206 3211 3216 3220 3223 3225 3227 3229
3099 3102 3101 3106 3111 3114 3117 3121 3125 3124 3128 3129 3131 3131 3137 3141 3145 3148 3150 3148 3149 3148 3147 3147 3150 3153 3155 3159 3162 3166 3171 3176 3182 3187 3192 3197 3202 3206 3210 3215 3220 3223 3225 3227
3095 3099 3100 3102 3107 3110 3111 3115 3119 3123 3126 3122 3128 3131 3135 3139 3143 3144 3143 3144 3146 3146 3146 3146 3148 3150 3152 3154 3157 3160 3165 3171 3176 3181 3186 3191 3195 3199 3205 3210 3215 3219 3221 3224
3092 3096 3096 3096 3097 3104 3109 3111 3114 3117 3117 3121 3121 3128 3131 3134 3137 3140 3142 3143 3143 3143 3143 3144 3145 3146 3149 3152 3154 3156 3160 3165 3171 3176 3180 3184 3188 3194 3199 3205 3209 3214 3217 3220
3092 3094 3096 3097 3097 3099 3102 3106 3110 3112 3115 3115 3120 3123 3128 3130 3132 3131 3132 3137 3138 3138 3139 3140 3141 3143 3145 3148 3151 3154 3156 3160 3164 3169 3173 3178 3183 3188 3194 3198 3203 3208 3211 3215
3090 3094 3094 3096 3097 3099 3102 3104 3106 3109 3111 3113 3117 3118 3123 3123 3124 3127 3128 3130 3132 3133 3134 3136 3137 3138 3141 3143 3146 3149 3153 3155 3158 3162 3167 3173 3178 3182 3187 3191 3196 3201 3205 3208
3091 3092 3094 3093 3096 3099 3100 3100 3102 3105 3108 3111 3113 3118 3115 3116 3119 3121 3123 3122 3125 3127 3128 3131 3132 3134 3135 3138 3141 3144 3148 3152 3154 3156 3161 3165 3171 3175 3179 3184 3188 3192 3197 3202
3088 3091 3093 3091 3095 3094 3092 3094 3098 3102 3098 3102 3106 3106 3106 3109 3114 3116 3114 3114 3117 3120 3121 3124 3126 3128 3131 3132 3135 3139 3142 3145 3148 3150 3154 3158 3162 3167 3172 3176 3179 3185 3190 3193
3086 3089 3091 3090 3091 3089 3092 3091 3094 3097 3100 3099 3100 3102 3101 3105 3110 3115 3108 3110 3111 3114 3116 3117 3120 3123 3125 3127 3130 3132 3134 3138 3141 3143 3146 3150 3154 3158 3162 3167 3172 3177 3181 3185
3085 3085 3089 3088 3086 3083 3086 3088 3090 3092 3097 3094 3097 3098 3098 3100 3103 3104 3103 3105 3106 3106 3108 3110 3113 3116 3119 3121 3123 3125 3128 3130 3132 3134 3138 3144 3147 3150 3153 3158 3163 3169 3173 3176
3083 3085 3086 3086 3085 3084 3083 3086 3088 3093 3095 3092 3093 3095 3096 3096 3097 3097 3096 3098 3098 3099 3101 3103 3106 3109 3112 3114 3116 3119 3121 3122 3125 3127 3131 3135 3140 3143 3146 3151 3155 3159 3163 3167
3080 3082 3082 3085 3084 3084 3082 3085 3088 3088 3087 3088 3090 3092 3093 3092 3092 3091 3090 3089 3091 3092 3093 3095 3097 3101 3104 3107 3110 3112 3113 3114 3113 3116 3120 3126 3132 3136 3138 3140 3145 3149 3152 3155
3082 3080 3079 3082 3082 3081 3082 3083 3084 3085 3087 3087 3088 3088 3089 3088 3087 3087 3086 3084 3083 3083 3086 3087 3089 3093 3096 3099 3102 3103 3104 3104 3105 3107 3111 3118 3124 3129 3130 3133 3136 3139 3142 3146
3076 3076 3079 3081 3081 3080 3081 3082 3083 3084 3085 3086 3086 3086 3085 3084 3084 3083 3082 3082 3079 3077 3079 3080 3082 3085 3087 3091 3093 3095 3097 3098 3101 3104 3108 3112 3117 3121 3123 3125 3128 3130 3133 3136
3075 3073 3077 3078 3078 3077 3080 3078 3079 3081 3083 3084 3083 3083 3082 3080 3080 3079 3079 3078 3077 3074 3073 3074 3076 3077 3081 3084 3085 3087 3090 3093 3096 3099 3102 3106 3110 3113 3115 3117 3120 3122 3126 3129
3072 3073 3074 3076 3071 3072 3074 3073 3075 3077 3079 3080 3081 3080 3080 3078 3076 3076 3075 3074 3075 3072 3070 3069 3071 3071 3074 3077 3079 3082 3085 3087 3090 3093 3096 3100 3103 3105 3107 3110 3113 3115 3119 3121
Wind_Speed
27 22 25 21 19 13 8 10 8 7 7 7 8 7 9 7 9 11 7 4 7 13 17 17 17 18 23 23 22 20 18 20 18 16 17 20 20 20 19 17 15 12 10 9
25 33 26 22 20 17 13 12 11 7 7 7 7 8 10 13 8 12 10 10 9 15 18 18 19 19 20 23 23 22 19 21 19 19 20 25 24 22 20 17 14 10 8 7
39 33 27 24 23 20 19 18 13 8 7 9 10 13 11 12 11 16 15 13 14 15 14 19 19 19 20 23 23 23 21 22 21 22 24 26 25 23 21 18 14 10 8 7
40 34 29 29 28 23 24 19 13 11 9 12 6 10 7 10 10 11 16 15 17 18 20 18 21 21 20 21 24 23 22 24 23 25 28 29 27 24 22 18 14 10 8 7
44 39 34 32 32 26 25 16 17 14 14 14 14 12 15 10 10 13 16 13 13 15 18 20 19 25 23 22 26 25 23 23 24 29 32 32 30 27 23 19 14 11 9 8
41 33 36 34 30 29 24 16 16 15 18 21 18 15 14 15 12 12 15 8 8 11 14 19 21 24 27 26 27 28 26 24 25 31 34 35 32 30 26 21 16 12 10 8
32 36 35 30 34 28 25 22 21 16 17 16 20 19 21 3 6 4 11 12 12 13 16 22 28 30 31 32 28 29 29 27 27 33 35 36 34 32 27 23 18 15 12 9
36 35 36 30 38 37 31 31 26 18 14 19 25 15 22 17 16 13 12 11 11 21 21 24 30 32 30 35 32 30 30 30 30 34 35 38 36 34 29 25 21 17 14 12
32 36 37 33 33 35 32 38 33 30 26 17 21 22 20 21 18 14 13 10 9 9 12 23 30 32 34 33 36 34 32 33 32 34 36 39 38 36 32 28 23 20 16 13
14 28 22 28 27 31 37 27 30 32 22 23 24 25 18 4 7 8 13 10 13 12 10 18 28 31 34 31 37 37 35 33 33 36 38 41 40 38 35 31 27 23 19 16
18 19 24 20 30 30 27 28 30 31 36 19 17 26 22 22 17 12 16 10 12 11 8 15 23 26 32 33 34 39 38 37 36 37 39 42 42 42 38 34 30 26 23 19
21 21 19 26 19 28 30 31 31 29 25 27 27 23 14 12 11 9 20 11 9 12 12 12 20 22 28 33 33 36 40 40 38 37 39 42 44 44 42 38 33 30 26 22
11 20 23 19 18 19 24 27 33 32 29 29 22 28 24 19 16 9 9 16 15 14 14 7 19 22 24 29 34 35 39 41 40 40 41 43 45 47 46 41 37 33 30 26
19 9 18 19 28 22 25 24 27 29 31 31 34 22 19 16 16 15 12 27 19 18 14 13 18 22 25 25 27 30 34 39 42 41 43 45 46 47 47 44 41 37 34 31
7 8 7 5 3 7 16 24 26 26 31 30 26 29 29 29 26 24 23 21 23 21 20 16 9 23 22 25 27 25 25 34 40 43 44 46 46 47 48 48 46 41 38 35
3 6 5 8 5 6 9 18 20 21 23 24 27 26 19 20 21 19 28 32 27 22 22 19 16 13 26 25 28 27 29 28 33 41 42 45 47 48 49 51 50 47 43 40
6 7 8 13 9 7 13 17 17 20 21 23 25 20 19 14 20 24 25 29 28 26 23 21 19 15 16 27 29 28 30 30 33 36 41 44 46 48 50 50 53 52 49 45
7 8 10 11 9 12 7 7 7 10 12 16 12 14 13 24 21 18 24 26 24 26 26 24 22 18 14 16 26 30 31 30 33 33 37 43 45 47 49 50 53 55 53 51
9 11 11 15 19 10 7 2 5 11 7 12 10 13 25 28 25 16 29 24 28 26 26 27 25 22 17 16 17 20 27 33 32 36 33 34 42 46 47 50 51 53 56 56
12 12 13 12 15 15 7 11 13 15 14 17 13 13 17 19 20 24 25 28 29 29 27 27 27 25 22 20 21 21 21 26 34 36 38 35 35 42 47 47 48 49 53 57
13 15 18 14 14 7 9 12 13 13 9 15 9 11 16 18 18 22 27 31 32 32 30 31 28 28 27 23 24 24 25 28 31 39 39 42 37 35 41 45 47 47 50 54
11 11 15 17 14 13 11 12 11 14 15 11 11 5 7 11 14 19 23 25 29 31 33 32 32 30 30 24 25 26 27 24 31 38 42 41 43 34 37 42 45 46 47 50
9 10 3 8 7 8 4 6 7 5 5 11 10 9 8 8 11 16 19 20 25 31 30 29 31 29 27 26 26 25 21 26 30 38 40 40 41 35 35 39 42 44 44 46
10 14 12 6 9 7 7 11 8 7 5 3 9 15 13 10 12 13 14 16 18 27 22 23 26 30 29 29 26 25 23 23 28 31 33 37 40 36 32 35 39 42 43 44
8 11 10 15 14 12 9 13 16 17 16 13 9 12 10 9 12 15 16 15 12 15 18 19 22 24 30 30 31 32 31 29 29 33 36 37 37 37 37 37 38 40 40 40
13 12 14 15 15 22 19 19 18 17 18 17 19 10 13 11 11 15 14 14 16 4 11 18 21 25 28 31 31 33 35 33 31 33 34 36 35 34 31 32 36 37 36 36
Wind_Direction
217 210 215 216 218 236 235 226 197 204 194 203 228 229 245 255 243 226 235 226 205 197 189 191 192 194 193 193 187 188 185 174 174 171 166 160 159 156 156 153 145 138 129 121
214 219 217 218 222 221 220 219 214 204 212 212 239 252 234 239 251 224 241 239 218 203 200 198 198 198 203 199 194 186 189 180 176 174 169 166 166 165 165 161 152 147 137 125
215 221 214 218 216 216 220 222 216 226 206 237 253 263 234 225 242 217 227 220 212 217 211 209 201 203 202 205 202 192 187 187 182 180 175 173 171 170 174 167 159 155 143 127
222 218 217 215 218 217 221 219 226 224 233 237 213 268 202 225 224 237 218 216 221 216 208 210 210 206 204 201 202 202 192 193 189 184 181 178 177 178 183 175 167 160 154 137
221 217 215 216 218 217 225 223 224 235 238 250 247 250 259 226 223 226 195 204 218 232 235 219 210 209 202 203 200 203 199 199 194 186 184 181 183 186 187 182 176 172 169 156
220 221 218 221 219 220 219 223 221 234 243 247 240 253 264 233 228 217 210 228 233 242 243 239 222 211 204 205 202 204 204 204 196 186 185 184 185 191 190 188 186 183 182 166
216 218 219 217 217 216 211 213 222 224 228 238 240 241 238 168 187 217 208 237 265 270 240 235 224 210 200 205 204 204 205 207 197 190 188 187 190 196 196 195 193 191 187 176
209 211 210 211 213 213 216 217 227 226 229 235 227 232 244 250 254 261 240 254 268 260 242 236 225 214 207 204 205 208 205 207 201 195 192 191 195 200 202 202 201 199 194 185
209 217 217 216 216 214 218 224 227 244 249 258 231 233 253 249 251 257 264 269 302 287 276 232 218 215 210 208 206 208 207 207 204 199 197 194 199 204 206 208 207 208 202 194
211 209 202 208 207 217 219 223 219 230 240 241 232 246 240 205 232 208 228 274 320 341 292 221 213 210 210 209 209 207 211 210 206 202 201 198 201 208 212 214 213 213 212 205
206 208 187 190 203 201 202 214 219 229 225 239 238 241 237 246 252 259 256 289 308 354 327 217 209 209 205 209 209 209 210 211 211 206 205 203 203 210 215 218 218 218 218 215
203 212 204 215 205 211 219 213 214 221 223 234 256 248 226 231 228 247 218 280 303 343 1 220 209 209 206 209 212 212 213 212 211 211 209 208 207 210 215 220 221 222 222 220
182 212 217 205 202 209 210 213 222 228 234 232 228 238 235 244 255 263 244 270 287 309 336 268 221 224 218 215 216 215 214 217 214 212 211 212 211 212 214 218 223 225 225 225
171 193 222 225 221 215 209 216 221 223 227 233 237 243 227 230 247 270 283 236 266 300 304 323 225 234 233 230 220 222 221 218 219 216 215 214 214 215 214 218 223 227 228 228
161 192 204 225 185 208 218 216 221 226 231 237 240 242 248 259 263 267 265 268 270 287 289 301 275 228 227 230 231 228 222 224 223 221 219 218 217 217 217 218 223 227 229 231
193 204 199 211 215 212 223 222 223 227 229 238 241 247 247 263 255 270 266 264 264 276 279 285 288 248 229 229 228 226 230 229 227 226 224 222 220 221 219 220 221 226 230 233
208 206 209 217 200 223 237 226 225 231 233 240 241 250 241 253 258 265 271 269 262 265 269 272 279 269 239 227 230 231 230 230 234 231 227 225 224 224 223 221 223 224 228 233
207 203 212 234 211 223 162 155 198 209 204 216 219 232 254 241 249 262 267 267 265 263 264 264 268 274 257 230 224 226 230 232 234 236 234 228 226 226 227 226 225 225 228 232
197 199 217 223 221 199 177 184 196 189 213 235 228 233 246 248 250 255 257 260 261 261 260 260 257 264 262 241 225 222 226 228 230 236 236 234 231 229 228 228 229 228 228 231
204 207 203 203 242 224 148 216 207 214 209 251 247 241 249 251 244 228 247 250 255 260 257 253 249 255 258 248 238 235 236 236 233 232 231 234 234 231 232 230 230 232 232 232
198 207 218 216 227 203 229 210 209 214 223 227 234 251 253 267 268 257 255 251 250 255 254 255 248 247 255 249 243 247 253 267 245 233 231 228 232 234 233 233 232 232 234 235
197 208 213 226 230 230 256 243 217 226 238 240 231 253 267 280 283 277 277 269 257 252 255 259 253 246 251 243 244 253 266 267 239 229 227 225 228 233 235 231 231 231 233 236
230 217 239 218 198 224 277 247 197 225 272 273 257 242 262 279 305 296 292 278 272 263 260 260 253 245 240 234 240 251 253 242 235 222 217 222 225 233 234 232 230 232 234 235
247 235 231 263 232 241 237 244 239 205 222 318 267 256 253 273 285 302 308 274 278 274 266 259 249 243 227 224 233 230 225 225 221 219 221 223 222 232 236 235 231 231 234 235
253 249 243 247 258 254 241 254 248 256 264 280 326 275 283 297 290 292 294 278 262 279 265 261 243 235 226 225 230 230 226 229 228 226 224 223 223 229 235 240 239 236 236 239
255 250 247 246 255 244 233 250 264 259 262 267 266 308 286 290 297 285 281 288 259 276 272 265 259 239 230 229 227 229 232 236 231 225 221 223 226 230 235 238 237 237 239 242